TimeEST,TemperatureF,Dew PointF,Humidity,Sea Level PressureIn,VisibilityMPH,Wind Direction,Wind SpeedMPH,Gust SpeedMPH,PrecipitationIn,Events,Conditions,WindDirDegrees,DateUTC
12:53 AM,46.9,44.1,90,30.01,10.0,NW,5.8,-,N/A,,Clear,310,2012-11-07 05:53:00
1:53 AM,48.9,45.0,86,30.02,10.0,WNW,8.1,-,N/A,,Mostly Cloudy,290,2012-11-07 06:53:00
2:53 AM,48.0,44.1,86,30.01,10.0,WNW,5.8,-,N/A,,Clear,300,2012-11-07 07:53:00
3:53 AM,46.0,43.0,89,30.02,10.0,Calm,Calm,-,N/A,,Clear,0,2012-11-07 08:53:00
4:53 AM,46.9,45.0,93,30.02,9.0,Calm,Calm,-,N/A,,Overcast,0,2012-11-07 09:53:00
5:53 AM,46.9,44.1,90,30.03,10.0,WNW,5.8,-,N/A,,Clear,300,2012-11-07 10:53:00
6:53 AM,46.4,44.6,93,30.00,10.0,WNW,5.8,-,N/A,,Clear,300,2012-11-07 11:53:00
7:53 AM,48.9,45.0,86,30.04,9.0,WNW,4.6,-,N/A,,Clear,300,2012-11-07 12:53:00
8:53 AM,53.1,46.0,77,30.05,10.0,West,9.2,-,N/A,,Clear,280,2012-11-07 13:53:00
9:53 AM,57.0,45.0,64,30.06,10.0,West,10.4,-,N/A,,Clear,280,2012-11-07 14:53:00
10:53 AM,60.1,42.1,51,30.05,10.0,NW,13.8,20.7,N/A,,Clear,310,2012-11-07 15:53:00
11:53 AM,62.1,42.1,48,30.02,10.0,NW,19.6,26.5,N/A,,Clear,310,2012-11-07 16:53:00
12:53 PM,64.0,42.1,45,29.99,10.0,WNW,15.0,20.7,N/A,,Scattered Clouds,290,2012-11-07 17:53:00
1:53 PM,63.0,39.0,41,29.97,10.0,West,15.0,20.7,N/A,,Partly Cloudy,270,2012-11-07 18:53:00
2:53 PM,61.0,39.9,46,29.95,10.0,NW,10.4,-,N/A,,Partly Cloudy,310,2012-11-07 19:53:00
3:53 PM,64.0,39.9,41,29.95,10.0,WNW,10.4,-,N/A,,Scattered Clouds,290,2012-11-07 20:53:00
4:53 PM,63.0,41.0,45,29.98,10.0,NW,8.1,-,N/A,,Mostly Cloudy,320,2012-11-07 21:53:00
5:53 PM,57.2,42.8,59,29.96,10.0,NW,3.5,-,N/A,,Mostly Cloudy,320,2012-11-07 22:53:00
6:53 PM,52.0,44.1,74,30.02,10.0,Calm,Calm,-,N/A,,Partly Cloudy,0,2012-11-07 23:53:00
7:53 PM,48.9,45.0,86,30.04,10.0,NW,3.5,-,N/A,,Mostly Cloudy,310,2012-11-08 00:53:00
8:53 PM,50.0,45.0,83,30.07,10.0,NW,3.5,-,N/A,,Overcast,310,2012-11-08 01:53:00
9:53 PM,51.1,43.0,74,30.09,10.0,NNW,8.1,-,N/A,,Scattered Clouds,330,2012-11-08 02:53:00
10:53 PM,51.1,41.0,68,30.12,10.0,NNW,8.1,-,N/A,,Clear,340,2012-11-08 03:53:00
11:53 PM,48.0,41.0,77,30.12,10.0,NW,5.8,-,N/A,,Mostly Cloudy,320,2012-11-08 04:53:00